TimeCDT,TemperatureF,Dew PointF,Humidity,Sea Level PressureIn,VisibilityMPH,Wind Direction,Wind SpeedMPH,Gust SpeedMPH,PrecipitationIn,Events,Conditions,WindDirDegrees,DateUTC
12:53 AM,37.0,28.9,73,30.18,10.0,West,4.6,-,N/A,,Clear,260,2011-10-19 05:53:00
1:53 AM,42.1,28.9,60,30.17,10.0,NNW,10.4,-,N/A,,Clear,330,2011-10-19 06:53:00
2:53 AM,39.9,28.9,65,30.17,10.0,NNW,11.5,-,N/A,,Clear,340,2011-10-19 07:53:00
3:53 AM,39.0,28.9,67,30.18,10.0,NNW,10.4,-,N/A,,Clear,330,2011-10-19 08:53:00
4:53 AM,37.9,28.9,70,30.18,10.0,North,11.5,-,N/A,,Clear,350,2011-10-19 09:53:00
6:53 AM,34.0,28.0,79,30.21,10.0,NNW,9.2,-,N/A,,Clear,330,2011-10-19 11:53:00
7:53 AM,36.0,28.0,73,30.23,10.0,NNW,12.7,-,N/A,,Clear,330,2011-10-19 12:53:00
8:53 AM,37.0,28.9,73,30.25,10.0,NW,10.4,-,N/A,,Overcast,310,2011-10-19 13:53:00
9:53 AM,41.0,30.0,65,30.25,10.0,NW,9.2,-,N/A,,Overcast,320,2011-10-19 14:53:00
11:53 AM,50.0,32.0,50,30.22,10.0,North,11.5,19.6,N/A,,Clear,350,2011-10-19 16:53:00
12:53 PM,54.0,32.0,43,30.20,10.0,NNW,17.3,21.9,N/A,,Clear,340,2011-10-19 17:53:00
1:53 PM,55.0,30.9,40,30.15,10.0,North,16.1,21.9,N/A,,Clear,350,2011-10-19 18:53:00
2:53 PM,57.0,30.9,37,30.12,10.0,North,16.1,19.6,N/A,,Partly Cloudy,360,2011-10-19 19:53:00
3:53 PM,57.0,30.0,36,30.10,10.0,North,13.8,-,N/A,,Scattered Clouds,350,2011-10-19 20:53:00
4:53 PM,57.9,28.9,33,30.09,10.0,North,11.5,-,N/A,,Clear,10,2011-10-19 21:53:00
5:53 PM,57.0,28.9,34,30.08,10.0,North,10.4,-,N/A,,Clear,360,2011-10-19 22:53:00
6:53 PM,50.0,30.9,48,30.09,10.0,NNE,6.9,-,N/A,,Clear,30,2011-10-19 23:53:00
7:53 PM,45.0,32.0,60,30.10,10.0,ENE,3.5,-,N/A,,Clear,70,2011-10-20 00:53:00
8:53 PM,42.1,30.9,65,30.10,10.0,Calm,Calm,-,N/A,,Clear,0,2011-10-20 01:53:00
9:53 PM,39.0,30.9,73,30.10,10.0,ENE,3.5,-,N/A,,Clear,70,2011-10-20 02:53:00
10:53 PM,35.1,30.0,82,30.12,10.0,ENE,3.5,-,N/A,,Clear,60,2011-10-20 03:53:00
11:53 PM,34.0,28.9,82,30.12,10.0,Calm,Calm,-,N/A,,Clear,0,2011-10-20 04:53:00